This demonstration page uses our WeatherBlox Daily Observations layout. Learn more.

Left ArrowRight Arrow

34.74481, -87.66753

Hourly Observations for October 10, 2021

Temp ( °F °C ) Dew Point ( °F °C ) Humidity (%) Winds ( mph kmh ) Pressure ( in mb ) Visibility ( mi km ) Precip ( " mm )
12:53 am 00:53 Clear with Mist and Fog 67 19.4 63 17.2 87 87 SE 3 6 29.96 1015 6 10 N/A
1:53 am 01:53 Clear with Mist and Fog 66 18.9 62 16.7 87 87 ESE 3 6 29.96 1014 4 6 N/A
2:53 am 02:53 Clear with Mist and Fog 66 18.9 63 17.2 90 90 N N/A 29.96 1014 4 6 N/A
3:01 am 03:01 Clear with Mist and Fog 67 19.4 63 17.2 87 87 N N/A 29.97 1015 2 3 N/A
3:28 am 03:28 Clear with Mist and Fog 65 18.3 62 16.7 90 90 N N/A 29.97 1015 1 1 N/A
3:37 am 03:37 Clear with Mist and Fog 65 18.3 61 16.1 87 87 N N/A 29.97 1015 2 2 N/A
3:51 am 03:51 Clear with Fog 63 17 61 16 94 94 N N/A 29.97 1015 1 1 N/A
3:53 am 03:53 Clear with Fog 63 17.2 60 15.6 90 90 N N/A 29.97 1015 0 0 N/A
4:02 am 04:02 Clear with Mist and Fog 65 18.3 61 16.1 87 87 N N/A 29.97 1015 1 2 N/A
4:05 am 04:05 Clear with Mist and Fog 65 18.3 61 16.1 87 87 N N/A 29.98 1015 3 5 N/A
4:16 am 04:16 Clear with Mist and Fog 65 18.3 62 16.7 90 90 N N/A 29.97 1015 2 2 N/A
4:30 am 04:30 Clear with Mist and Fog 65 18.3 62 16.7 90 90 N N/A 29.97 1015 3 5 N/A
4:36 am 04:36 Clear with Mist and Fog 65 18.3 62 16.7 90 90 N N/A 29.97 1015 2 3 N/A
4:53 am 04:53 Clear with Fog 64 17.8 61 16.1 90 90 N N/A 29.97 1015 1 1 N/A
5:02 am 05:02 Clear with Fog 64 17.8 60 15.6 87 87 N N/A 29.97 1015 0 0 N/A
5:14 am 05:14 Mostly Cloudy with Fog 63 17.2 60 15.6 90 90 ESE 3 6 29.98 1015 0 0 N/A
5:24 am 05:24 Clear with Fog 62 16.7 59 15 90 90 ESE 3 6 29.98 1015 0 0 N/A
5:43 am 05:43 Clear with Mist and Fog 64 17.8 61 16.1 90 90 N N/A 29.98 1015 1 1 N/A
5:50 am 05:50 Clear with Mist and Fog 64 18 61 16 88 88 N N/A 29.98 1015 2 3 N/A
5:53 am 05:53 Clear with Mist and Fog 65 18.3 61 16.1 87 87 N N/A 29.97 1015 2 2 N/A
6:10 am 06:10 Clear with Fog 64 17.8 61 16.1 90 90 N N/A 29.98 1015 0 0 N/A
6:39 am 06:39 Clear with Mist and Fog 63 17.2 60 15.6 90 90 N N/A 29.98 1015 1 1 N/A
6:53 am 06:53 Sunny with Fog 62 16.7 59 15 90 90 N N/A 29.98 1015 1 1 N/A
7:00 am 07:00 Sunny with Fog 63 17.2 59 15 87 87 ESE 3 6 29.99 1016 0 0 N/A
7:11 am 07:11 Sunny with Fog 64 17.8 61 16.1 90 90 ESE 3 6 29.99 1016 1 1 N/A
7:21 am 07:21 Sunny with Fog 64 17.8 61 16.1 90 90 N N/A 29.99 1016 0 0 N/A
7:30 am 07:30 Sunny with Mist and Fog 64 17.8 62 16.7 93 93 ESE 3 6 29.99 1016 1 2 N/A
7:36 am 07:36 Sunny with Mist and Fog 65 18.3 62 16.7 90 90 N N/A 30.00 1016 3 5 N/A
7:53 am 07:53 Sunny with Mist and Fog 67 19.4 64 17.8 91 91 SE 6 9 29.99 1016 5 8 N/A
8:53 am 08:53 Sunny 72 22.2 66 18.9 82 82 SE 6 9 30.00 1016 9 14 N/A
9:53 am 09:53 Sunny 78 25.6 66 18.9 67 67 SSE 7 11 30.00 1016 10 16 N/A
10:53 am 10:53 Sunny 82 27.8 65 18.3 56 56 S 8 13 29.99 1016 10 16 N/A
11:53 am 11:53 Sunny 83 28.3 66 18.9 57 57 SSW 8 13 29.97 1015 10 16 N/A
12:53 pm 12:53 Sunny 86 30 64 17.8 48 48 SW 7 11 29.96 1014 10 16 N/A
1:53 pm 13:53 Sunny 87 30.6 64 17.8 46 46 SSW 5 7 29.93 1013 10 16 N/A
2:53 pm 14:53 Sunny 87 30.6 64 17.8 46 46 S 8 13 29.91 1013 10 16 N/A
3:53 pm 15:53 Sunny 87 30.6 65 18.3 48 48 S 10 17 29.90 1013 10 16 N/A
4:53 pm 16:53 Sunny 85 29.4 66 18.9 53 53 SSE 9 15 29.89 1012 10 16 N/A
5:53 pm 17:53 Sunny 82 27.8 66 18.9 58 58 SSE 7 11 29.89 1012 10 16 N/A
6:53 pm 18:53 Clear 77 25 66 18.9 69 69 SSE 6 9 29.91 1013 10 16 N/A
7:53 pm 19:53 Clear 74 23.3 66 18.9 76 76 SE 5 7 29.92 1013 10 16 N/A
8:53 pm 20:53 Clear 72 22.2 65 18.3 79 79 SE 3 6 29.92 1013 10 16 N/A
9:53 pm 21:53 Clear 72 22.2 66 18.9 82 82 SSE 3 6 29.92 1013 10 16 N/A
10:53 pm 22:53 Clear 70 21.1 65 18.3 84 84 SE 6 9 29.90 1013 9 14 N/A
11:53 pm 23:53 Clear 71 21.7 65 18.3 81 81 SE 7 11 29.88 1012 9 14 N/A

Powered by AerisWeather